Stanley, ID

12:02 PM MST on December 16, 2017 (GMT -0700)
Stanley

Weather History for KSNT - November, 2013

Change the Weather History Date:

Wednesday, November 20, 2013

  Actual Average Record
Temperature  
Mean Temperature 24 °F 21 °F  
Max Temperature 38 °F 32 °F 55 °F (2008)
Min Temperature 10 °F 10 °F -19 °F (1979)
Degree Days  
Heating Degree Days 41 44  
Month to date heating degree days 717 773  
Since 1 July heating degree days 2345 2637  
Cooling Degree Days 0 0  
Month to date cooling degree days 0 0  
Year to date cooling degree days 19 3  
Moisture  
Dew Point 26 °F    
Average Humidity 85    
Maximum Humidity 100    
Minimum Humidity 69    
Precipitation  
Precipitation 0.44 in 0.07 in 0.58 in (1921)
Month to date precipitation 1.69 1.63  
Year to date precipitation 12.56 15.31  
Sea Level Pressure  
Sea Level Pressure 29.80 in    
Wind  
Wind Speed 5 mph (NNW)    
Max Wind Speed 12 mph    
Max Gust Speed 16 mph    
T = Trace of Precipitation, MM = Missing Value Source: NWS Daily Summary

Daily Weather History Graph

Daily Weather History Graph

Search for Another Location

Airport or City:

Trip Planner

Search our weather history database for the weather conditions in past years. The results will help you decide how hot, cold, wet, or windy it might be!

Date:

Astronomy

Nov. 20, 2013 Rise Set
Actual Time 7:42 AM MST 5:08 PM MST
Civil Twilight 7:10 AM MST 5:40 PM MST
Nautical Twilight 6:35 AM MST 6:15 PM MST
Astronomical Twilight 6:00 AM MST 6:49 PM MST
Moon 7:55 PM MST (11/20) 10:10 AM MST (11/20)
Length of Visible Light 10h 29m
Length of Day
9h 26m
Waning Gibbous, 91% of the Moon is Illuminated
Nov 20
Waning Gibbous
Nov 25
Last Quarter
Dec 2
New
Dec 9
First Quarter
Dec 17
Full

Hourly Weather History & Observations

Time (MST) Temp. Windchill Dew Point Humidity Pressure Visibility Wind Dir Wind Speed Gust Speed Precip Events Conditions
12:51 AM 34.0 °F 28.8 °F 32.0 °F 92% 29.72 in - SE 5.8 mph - 0.02 in   Unknown
1:51 AM 33.1 °F 27.7 °F 32.0 °F 96% 29.70 in - SE 5.8 mph - 0.04 in   Unknown
2:51 AM 34.0 °F 27.2 °F 32.0 °F 92% 29.69 in - SE 8.1 mph - 0.03 in   Unknown
3:51 AM 34.0 °F 27.2 °F 32.0 °F 92% 29.67 in - SE 8.1 mph - 0.04 in   Unknown
4:51 AM 33.1 °F 26.9 °F 32.0 °F 96% 29.65 in - ESE 6.9 mph - 0.06 in   Unknown
5:51 AM 33.1 °F 27.7 °F 32.0 °F 96% 29.67 in - SE 5.8 mph - 0.07 in   Unknown
6:51 AM 33.1 °F - 32.0 °F 96% 29.69 in - Calm Calm - 0.08 in   Unknown
7:51 AM 32.0 °F - 32.0 °F 100% 29.71 in - Calm Calm - 0.05 in   Unknown
8:51 AM 32.0 °F 28.7 °F 32.0 °F 100% 29.73 in - NW 3.5 mph - 0.05 in   Unknown
9:51 AM 33.1 °F 27.7 °F 32.0 °F 96% 29.75 in - NNW 5.8 mph - N/A   Unknown
10:51 AM 33.1 °F - 30.9 °F 92% 29.76 in - Calm Calm - 0.01 in   Unknown
11:51 AM 35.1 °F - 30.9 °F 85% 29.76 in - Calm Calm - N/A   Unknown
12:51 PM 36.0 °F 31.1 °F 30.0 °F 79% 29.74 in - NNW 5.8 mph - N/A   Unknown
1:51 PM 37.0 °F 32.4 °F 30.0 °F 76% 29.74 in - North 5.8 mph - N/A   Unknown
2:51 PM 34.0 °F 26.6 °F 27.0 °F 75% 29.77 in - NW 9.2 mph - N/A   Unknown
3:51 PM 30.9 °F 25.2 °F 24.1 °F 76% 29.81 in - Variable 5.8 mph - N/A   Unknown
4:51 PM 28.0 °F 22.8 °F 19.9 °F 72% 29.85 in - NNW 4.6 mph - N/A   Unknown
5:51 PM 24.1 °F 18.2 °F 18.0 °F 77% 29.90 in - NNW 4.6 mph - N/A   Unknown
6:51 PM 21.0 °F 16.2 °F 16.0 °F 81% 29.94 in - NW 3.5 mph - N/A   Unknown
7:51 PM 21.0 °F 16.2 °F 15.1 °F 78% 29.97 in - NW 3.5 mph - N/A   Unknown
8:51 PM 19.0 °F 10.0 °F 15.1 °F 85% 29.99 in - North 6.9 mph - N/A   Unknown
9:51 PM 18.0 °F 11.1 °F 14.0 °F 84% 30.00 in - NNW 4.6 mph - N/A   Unknown
10:51 PM 16.0 °F 10.4 °F 12.0 °F 84% 30.02 in - North 3.5 mph - N/A   Unknown
11:51 PM 12.0 °F - 10.0 °F 92% 30.05 in - Calm Calm - N/A   Unknown